Regional Weather Roundup
Issued by NWS

Home | Current Version | Previous Version | Graphics & Text | Print | Product List | Glossary On
Versions: 1 2 3 4 5 6 7 8 9 10 11 12 13 14 15 16 17 18 19 20 21 22 23 24 25 26 27 28 29 30 31 32 33 34 35 36 37 38 39 40 41 42 43 44 45 46 47 48 49 50
000
ASUS43 KLOT 031521
RWRIL

ILLINOIS REGIONAL WEATHER ROUNDUP
NATIONAL WEATHER SERVICE CHICAGO/ROMEOVILLE IL
1000 AM CDT FRI JUL 03 2015

NOTE: "FAIR" INDICATES FEW OR NO CLOUDS BELOW 12,000 FEET WITH NO
SIGNIFICANT WEATHER AND/OR OBSTRUCTIONS TO VISIBILITY.

* THESE STATIONS ARE NOT UNDER NWS QUALITY CONTROL. THEY ALSO MAY NOT
  REPORT WEATHER SUCH AS PRECIPITATION OR FOG.

ILZ001-002-007-009-015-016-024-031600-
NORTHWEST ILLINOIS

CITY           SKY/WX    TMP DP  RH WIND       PRES   REMARKS
MOLINE         PTSUNNY   67  54  63 CALM      29.98F
STERLING*      CLOUDY    66  57  72 NE3       29.99S
SAVANNA*       MOSUNNY   66  55  67 NE3       29.99F
$$

ILZ003-004-008-010-011-017-018-031600-
NORTH CENTRAL ILLINOIS

CITY           SKY/WX    TMP DP  RH WIND       PRES   REMARKS
ROCKFORD       CLOUDY    70  57  63 CALM      30.00S
FREEPORT*      MOSUNNY   63  55  76 CALM      30.02S
ROCHELLE*      MOSUNNY   67  57  68 SE6       30.00S
DE KALB*       MOSUNNY   67  56  67 SE7       30.00S
PERU*          MOSUNNY   69  56  64 E5        29.98F
$$

ILZ005-006-012>014-019>023-031600-
NORTHEAST ILLINOIS

CITY           SKY/WX    TMP DP  RH WIND       PRES   REMARKS
CHICAGO-OHARE  PTSUNNY   68  56  65 E5        29.98S
CHICAGO-MIDWAY PTSUNNY   71  57  61 VRB5      29.97F
AURORA         MOSUNNY   70  56  61 VRB5      29.99S
LANSING*       PTSUNNY   68  52  56 CALM      29.98S
JOLIET*        PTSUNNY   71  58  63 E5        29.98S
WAUKEGAN       MOSUNNY   65  56  72 E5        29.99S
DUPAGE AIRPORT MOSUNNY   68  56  65 E3        29.98F
KANKAKEE*      PTSUNNY   69  58  68 NE7       29.97S
WHEELING       MOSUNNY   68  56  65 CALM      29.99F
MORRIS*        PTSUNNY   70  56  62 CALM      29.96F
ROMEOVILLE*    PTSUNNY   70  54  57 E3        29.98S
NORTHERLY ISL    N/A     64  58  80 N5          N/A
$$

LMZ740>746-031600-
SOUTHERN LAKE MICHIGAN

STATION/POSITION SKY/WX   TEMP    WIND        PRES    VSBY  WAVE
                          AIR SEA DIR/SP/G                  HT/PER
                          (F)     (DEG/KT/KT) (MB)    (MI)  (FT/S)
HARRISON CRIB              61      20/  5/  6   N/A
BURNHAM HARBOR             64      30/  3/  6   N/A
CALUMET HARBOR             64      60/  2/  2   N/A
BURNS HARBOR               67     120/  7/ 14 1015.6S
MICHIGAN CITY              68      50/  2/  6   N/A
MICHIGAN CITY 6N           63 64   10/  6/  8   N/A           1/ 4
ST. JOSEPH                 63 63                N/A           1
$$

ILZ025>027-034>036-040-047-049-050-058-095>099-031600-
WEST-CENTRAL ILLINOIS

CITY           SKY/WX    TMP DP  RH WIND       PRES   REMARKS
QUINCY         SUNNY     70  62  76 N6        29.96R
GALESBURG*     MOSUNNY   69  60  72 N6        29.97F
MACOMB*        MOSUNNY   68  61  77 NE5       29.99S
JACKSONVILLE*  MOSUNNY   71  64  78 N6        29.93F
PITTSFIELD*    PTSUNNY   70  63  78 CALM      29.96S
$$

ILZ028>032-037-038-041>044-048-051>054-059>061-031600-
CENTRAL ILLINOIS

CITY           SKY/WX    TMP DP  RH WIND       PRES   REMARKS
PONTIAC        CLOUDY    68  61  77 NE5       29.97S
BLOOMINGTON    CLOUDY    67  61  81 NE9       29.96F
DECATUR        MOSUNNY   70  62  76 E8        29.92F
PEORIA         MOSUNNY   70  59  68 NE6       29.96S
LACON*         MOSUNNY   69  58  65 NE3       29.96F
LINCOLN*       PTSUNNY   71  61  72 N6        29.94F
SPRINGFIELD    PTSUNNY   71  62  73 VRB5      29.93F
TAYLORVILLE    CLOUDY    68  63  83 N6        29.93R
$$

ILZ033-039-045-046-055>057-062-063-031600-
EAST-CENTRAL ILLINOIS

CITY           SKY/WX    TMP DP  RH WIND       PRES   REMARKS
CHAMPAIGN      PTSUNNY   70  62  76 NE7       29.93S
DANVILLE*      PTSUNNY   69  61  77 NE6       29.90F HAZE
RANTOUL*       CLOUDY    71  62  74 E7        29.93S
MATTOON        PTSUNNY   71  64  78 NE6       29.90S
PARIS*         CLOUDY    70  64  82 NE5       29.91S
$$

ILZ079-100>102-031600-
SOUTHWEST ILLINOIS

CITY           SKY/WX    TMP DP  RH WIND       PRES   REMARKS
ALTON          SUNNY     72  70  94 N6        29.93R
BELLEVILLE     SUNNY     75  70  83 VRB2      29.90R
CAHOKIA*       MOSUNNY   75  65  70 N6        29.91R
SPARTA*        PTSUNNY   74  66  77 W3        29.92R
$$

ILZ064>066-069>071-074>076-080>082-084>086-088>090-092>094-031600-
SOUTH-CENTRAL ILLINOIS

CITY           SKY/WX    TMP DP  RH WIND       PRES   REMARKS
CARBONDALE     PTSUNNY   75  67  76 W6        29.90R
CAIRO*         MOSUNNY   75  71  85 W7        29.91R
EFFINGHAM*     CLOUDY    72  64  75 N6        29.92R
MARION         PTSUNNY   75  68  78 W6        29.91R
MT. VERNON     CLOUDY    75  66  73 NW3       29.90R
CENTRALIA*     MOSUNNY   75  67  75 N3        29.90R
SALEM*         MOSUNNY   76  68  75 CALM      29.90R
METROPOLIS*    PTSUNNY   76  73  90 CALM      29.91R
$$

ILZ067-068-072-073-078-083-087-091-031600-
SOUTHEAST ILLINOIS

CITY           SKY/WX    TMP DP  RH WIND       PRES   REMARKS
LAWRENCEVILLE  CLOUDY    74  68  81 N6        29.88R
FLORA*         MOSUNNY   74  67  79 N5        29.89S
FAIRFIELD*     CLOUDY    74  70  87 N3        29.87S
HARRISBURG*    MOSUNNY   77  70  78 SW3       29.90R
ROBINSON*      CLOUDY    72  66  82 NE7       29.89S
CARMI*         CLOUDY    75  66  73 N3        29.87R HAZE
$$

ABBREVIATIONS USED IN REMARKS
   TC - TEMPERATURE IN CELSIUS
  WCI - WIND CHILL INDEX
   HX - HEAT INDEX
  VSB - VISIBILITY
$$




USA.gov is the U.S. government's official web portal to all federal, state and local government web resources and services.